Terminal Aerodrome Forecast
Issued by NWS

Home | Current Version | Previous Version | Text Only | Print | Product List | Glossary On
Versions: 1 2 3 4 5 6 7 8 9 10 11 12 13 14 15 16 17
000
FTUS45 KPIH 051620 CCA
TAFSUN
TAF COR
KSUN 051620Z 0516/0612 18010KT P6SM VCTS SCT060 BKN090CB
     FM060200 29010KT P6SM SCT090
     FM060400 32008KT P6SM SKC=

USA.gov is the U.S. government's official web portal to all federal, state and local government web resources and services.